sat.trackr.live / text

‹ back to catalog

STARLINK-35502

NORAD 66435 · 2025-259P

PAYLOAD ACTIVE UNKNOWN

§ Identity

Operator
Country
US
Launch date
2025-11-11
Launch site
AFETR
Launch vehicle
Mass (kg)
RCS (m²)

Purposes: comms

External: N2YO · Heavens-Above · Gunter

§ Orbital elements

Epoch: 2026-09-20T15:48:56.283264Z

Period
94.27 min
Inclination
43.0003°
Eccentricity
0.0000964
Mean motion
15.27583756 rev/d
Perigee alt
482.4 km
Apogee alt
483.7 km
Semi-major
6,861.2 km
B*
4.0412e-4
RAAN
252.8876°
Arg perigee
282.0109°
Mean anomaly
78.0634°
Rev number
4,931

§ Raw data

STARLINK-355021 66435U 25259P   26263.65898476  .00010876  00000+0  40412-3 0  99942 66435  43.0003 252.8876 0000964 282.0109  78.0634 15.27583756 49319

JSON: /api/v1/satellites/66435 · /tle

For live sub-satellite position, see the globe view (requires WebGL).

§ Visibility from observer

Set your observer location to see the next 7 days of passes ≥ 10°. The values pass through the URL so the page stays shareable.

No JS? Fill the form by hand. The geolocation button needs JavaScript.